| time (UTC) | temp F | wind direction | speed MPH | gust MPH | rain 1hr in | rain 24hr in | rain mn in | humidity % | barometer mb |
| 20260509145024 | 78 | 146 | 2.0 | 7.0 | 0.00 | 0.00 | 0.00 | 27 | 1009.5 |
| 20260509144539 | 78 | 128 | 2.0 | 7.0 | 0.00 | 0.00 | 0.00 | 27 | 1009.7 |
| 20260509144024 | 77 | 146 | 3.0 | 7.0 | 0.00 | 0.00 | 0.00 | 28 | 1009.6 |
| 20260509143525 | 77 | 184 | 2.0 | 7.0 | 0.00 | 0.00 | 0.00 | 29 | 1009.6 |
| 20260509143039 | 76 | 155 | 2.0 | 5.0 | 0.00 | 0.00 | 0.00 | 29 | 1009.4 |
| 20260509142523 | 76 | 171 | 1.0 | 5.0 | 0.00 | 0.00 | 0.00 | 29 | 1009.4 |
| 20260509142024 | 75 | 109 | 2.0 | 6.0 | 0.00 | 0.00 | 0.00 | 29 | 1009.3 |
| 20260509141539 | 74 | 102 | 1.0 | 6.0 | 0.00 | 0.00 | 0.00 | 29 | 1009.4 |
| 20260509141025 | 74 | 165 | 2.0 | 6.0 | 0.00 | 0.00 | 0.00 | 29 | 1009.4 |
| 20260509140524 | 74 | 155 | 1.0 | 4.0 | 0.00 | 0.00 | 0.00 | 30 | 1009.3 |
| 20260509140049 | 73 | 130 | 1.0 | 6.0 | 0.00 | 0.00 | 0.00 | 31 | 1009.3 |
| 20260509135527 | 72 | 109 | 2.0 | 6.0 | 0.00 | 0.00 | 0.00 | 31 | 1009.1 |
| 20260509135023 | 72 | 100 | 2.0 | 6.0 | 0.00 | 0.00 | 0.00 | 31 | 1009.1 |
| 20260509134549 | 71 | 98 | 2.0 | 6.0 | 0.00 | 0.00 | 0.00 | 32 | 1009.1 |
| 20260509134024 | 71 | 126 | 1.0 | 6.0 | 0.00 | 0.00 | 0.00 | 32 | 1009.1 |
| 20260509133524 | 70 | 117 | 2.0 | 6.0 | 0.00 | 0.00 | 0.00 | 32 | 1009.1 |
| 20260509133053 | 70 | 103 | 1.0 | 6.0 | 0.00 | 0.00 | 0.00 | 32 | 1009.0 |
| 20260509132525 | 69 | 129 | 2.0 | 7.0 | 0.00 | 0.00 | 0.00 | 33 | 1009.0 |
| 20260509132023 | 69 | 101 | 1.0 | 7.0 | 0.00 | 0.00 | 0.00 | 33 | 1008.8 |
| 20260509131540 | 69 | 96 | 3.0 | 7.0 | 0.00 | 0.00 | 0.00 | 33 | 1008.8 |
| 20260509131023 | 68 | 100 | 2.0 | 6.0 | 0.00 | 0.00 | 0.00 | 33 | 1008.8 |
| 20260509130523 | 68 | 99 | 2.0 | 6.0 | 0.00 | 0.00 | 0.00 | 33 | 1008.7 |
| 20260509130039 | 68 | 102 | 2.0 | 6.0 | 0.00 | 0.00 | 0.00 | 33 | 1008.5 |
| 20260509125525 | 68 | 97 | 2.0 | 4.0 | 0.00 | 0.00 | 0.00 | 33 | 1008.6 |
| 20260509125024 | 68 | 143 | 1.0 | 6.0 | 0.00 | 0.00 | 0.00 | 33 | 1008.5 |
| 20260509124539 | 67 | 109 | 2.0 | 6.0 | 0.00 | 0.00 | 0.00 | 33 | 1008.3 |
| 20260509124025 | 67 | 102 | 1.0 | 4.0 | 0.00 | 0.00 | 0.00 | 33 | 1008.1 |
| 20260509123524 | 68 | 105 | 2.0 | 4.0 | 0.00 | 0.00 | 0.00 | 33 | 1008.2 |
| 20260509123040 | 68 | 108 | 1.0 | 3.0 | 0.00 | 0.00 | 0.00 | 32 | 1008.1 |
| 20260509122524 | 68 | 110 | 1.0 | 3.0 | 0.00 | 0.00 | 0.00 | 32 | 1008.1 |
| 20260509122024 | 68 | 102 | 1.0 | 3.0 | 0.00 | 0.00 | 0.00 | 32 | 1008.0 |
| 20260509121541 | 68 | 102 | 1.0 | 3.0 | 0.00 | 0.00 | 0.00 | 31 | 1007.9 |
| 20260509121025 | 68 | 0 | 1.0 | 4.0 | 0.00 | 0.00 | 0.00 | 31 | 1007.9 |
| 20260509120524 | 68 | 103 | 1.0 | 4.0 | 0.00 | 0.00 | 0.00 | 32 | 1007.8 |
| 20260509120040 | 68 | 111 | 2.0 | 4.0 | 0.00 | 0.00 | 0.00 | 32 | 1007.8 |
| 20260509115523 | 68 | 109 | 2.0 | 4.0 | 0.00 | 0.00 | 0.00 | 32 | 1007.7 |
| 20260509115024 | 69 | 109 | 1.0 | 3.0 | 0.00 | 0.00 | 0.00 | 32 | 1007.8 |
| 20260509114547 | 69 | 109 | 1.0 | 3.0 | 0.00 | 0.00 | 0.00 | 32 | 1007.6 |
| 20260509114027 | 69 | 109 | 1.0 | 3.0 | 0.00 | 0.00 | 0.00 | 31 | 1007.7 |
| 20260509113523 | 69 | 109 | 1.0 | 4.0 | 0.00 | 0.00 | 0.00 | 32 | 1007.6 |
| 20260509113046 | 69 | 109 | 1.0 | 4.0 | 0.00 | 0.00 | 0.00 | 32 | 1007.7 |
| 20260509112524 | 69 | 109 | 2.0 | 4.0 | 0.00 | 0.00 | 0.00 | 31 | 1007.6 |
| 20260509112024 | 69 | 139 | 0.0 | 3.0 | 0.00 | 0.00 | 0.00 | 32 | 1007.7 |
| 20260509111542 | 69 | 139 | 1.0 | 3.0 | 0.00 | 0.00 | 0.00 | 31 | 1007.6 |
| 20260509111025 | 69 | 139 | 1.0 | 3.0 | 0.00 | 0.00 | 0.00 | 31 | 1007.5 |
| 20260509110523 | 70 | 139 | 0.0 | 2.0 | 0.00 | 0.00 | 0.00 | 31 | 1007.5 |
| 20260509110040 | 70 | 139 | 0.0 | 6.0 | 0.00 | 0.00 | 0.00 | 31 | 1007.4 |
| 20260509105529 | 70 | 139 | 0.0 | 6.0 | 0.00 | 0.00 | 0.00 | 31 | 1007.5 |
| 20260509105024 | 70 | 139 | 3.0 | 6.0 | 0.00 | 0.00 | 0.00 | 30 | 1007.4 |
| 20260509104540 | 70 | 105 | 1.0 | 6.0 | 0.00 | 0.00 | 0.00 | 31 | 1007.4 |
| 20260509104023 | 71 | 143 | 1.0 | 6.0 | 0.00 | 0.00 | 0.00 | 30 | 1007.4 |
| 20260509103524 | 71 | 157 | 3.0 | 6.0 | 0.00 | 0.00 | 0.00 | 30 | 1007.4 |
| 20260509103039 | 71 | 154 | 2.0 | 4.0 | 0.00 | 0.00 | 0.00 | 29 | 1007.4 |
| 20260509102525 | 71 | 146 | 1.0 | 5.0 | 0.00 | 0.00 | 0.00 | 29 | 1007.5 |
| 20260509102025 | 71 | 0 | 2.0 | 5.0 | 0.00 | 0.00 | 0.00 | 29 | 1007.4 |
| 20260509101540 | 71 | 145 | 2.0 | 4.0 | 0.00 | 0.00 | 0.00 | 29 | 1007.5 |
| 20260509101024 | 71 | 145 | 0.0 | 5.0 | 0.00 | 0.00 | 0.00 | 29 | 1007.6 |
| 20260509100524 | 71 | 0 | 2.0 | 5.0 | 0.00 | 0.00 | 0.00 | 29 | 1007.4 |
| 20260509100048 | 71 | 144 | 1.0 | 4.0 | 0.00 | 0.00 | 0.00 | 30 | 1007.5 |
| 20260509095524 | 71 | 0 | 1.0 | 4.0 | 0.00 | 0.00 | 0.00 | 30 | 1007.6 |
| 20260509095024 | 72 | 145 | 2.0 | 3.0 | 0.00 | 0.00 | 0.00 | 31 | 1007.5 |
| 20260509094541 | 72 | 145 | 1.0 | 4.0 | 0.00 | 0.00 | 0.00 | 31 | 1007.6 |
| 20260509094024 | 72 | 145 | 2.0 | 4.0 | 0.00 | 0.00 | 0.00 | 31 | 1007.5 |
| 20260509093525 | 72 | 145 | 2.0 | 4.0 | 0.00 | 0.00 | 0.00 | 31 | 1007.6 |
| 20260509093042 | 72 | 148 | 0.0 | 3.0 | 0.00 | 0.00 | 0.00 | 31 | 1007.4 |
| 20260509092523 | 72 | 148 | 1.0 | 3.0 | 0.00 | 0.00 | 0.00 | 32 | 1007.5 |
| 20260509092024 | 73 | 0 | 0.0 | 2.0 | 0.00 | 0.00 | 0.00 | 31 | 1007.5 |
| 20260509091540 | 73 | 148 | 1.0 | 2.0 | 0.00 | 0.00 | 0.00 | 32 | 1007.5 |
| 20260509091024 | 73 | 148 | 1.0 | 3.0 | 0.00 | 0.00 | 0.00 | 31 | 1007.5 |
| 20260509090525 | 73 | 0 | 1.0 | 3.0 | 0.00 | 0.00 | 0.00 | 30 | 1007.4 |
| 20260509090039 | 73 | 148 | 1.0 | 5.0 | 0.00 | 0.00 | 0.00 | 30 | 1007.5 |
| 20260509085524 | 74 | 0 | 2.0 | 6.0 | 0.00 | 0.00 | 0.00 | 30 | 1007.4 |
| 20260509085024 | 74 | 148 | 3.0 | 6.0 | 0.00 | 0.00 | 0.00 | 30 | 1007.4 |
| 20260509084548 | 74 | 167 | 3.0 | 6.0 | 0.00 | 0.00 | 0.00 | 30 | 1007.4 |
| 20260509084023 | 74 | 133 | 2.0 | 3.0 | 0.00 | 0.00 | 0.00 | 29 | 1007.4 |
| 20260509083527 | 74 | 112 | 1.0 | 3.0 | 0.00 | 0.00 | 0.00 | 28 | 1007.4 |
| 20260509083039 | 75 | 112 | 1.0 | 3.0 | 0.00 | 0.00 | 0.00 | 28 | 1007.3 |
| 20260509082524 | 75 | 112 | 0.0 | 2.0 | 0.00 | 0.00 | 0.00 | 28 | 1007.4 |
| 20260509082025 | 75 | 112 | 0.0 | 2.0 | 0.00 | 0.00 | 0.00 | 28 | 1007.4 |
| 20260509081540 | 75 | 0 | 0.0 | 2.0 | 0.00 | 0.00 | 0.00 | 28 | 1007.4 |
| 20260509081023 | 75 | 0 | 0.0 | 3.0 | 0.00 | 0.00 | 0.00 | 28 | 1007.4 |
| 20260509080524 | 76 | 0 | 1.0 | 3.0 | 0.00 | 0.00 | 0.00 | 28 | 1007.4 |
| 20260509080055 | 76 | 112 | 1.0 | 3.0 | 0.00 | 0.00 | 0.00 | 27 | 1007.3 |
| 20260509075524 | 76 | 112 | 0.0 | 3.0 | 0.00 | 0.00 | 0.00 | 27 | 1007.3 |
| 20260509075025 | 76 | 112 | 1.0 | 3.0 | 0.00 | 0.00 | 0.00 | 27 | 1007.4 |
| 20260509074539 | 76 | 0 | 1.0 | 3.0 | 0.00 | 0.00 | 0.00 | 27 | 1007.3 |
| 20260509074024 | 77 | 253 | 1.0 | 3.0 | 0.00 | 0.00 | 0.00 | 27 | 1007.2 |
| 20260509073524 | 77 | 254 | 1.0 | 3.0 | 0.00 | 0.00 | 0.00 | 28 | 1007.2 |
| 20260509073133 | 78 | 0 | 0.0 | 1.0 | 0.00 | 0.00 | 0.00 | 27 | 1007.2 |
| 20260509072524 | 78 | 0 | 0.0 | 1.0 | 0.00 | 0.00 | 0.00 | 26 | 1007.2 |
| 20260509072023 | 79 | 0 | 0.0 | 1.0 | 0.00 | 0.00 | 0.00 | 25 | 1007.3 |
| 20260509071546 | 79 | 0 | 0.0 | 0.0 | 0.00 | 0.00 | 0.00 | 23 | 1007.2 |
| 20260509071024 | 79 | 0 | 0.0 | 0.0 | 0.00 | 0.00 | 0.00 | 23 | 1007.1 |
| 20260509070524 | 80 | 0 | 0.0 | 1.0 | 0.00 | 0.00 | 0.00 | 23 | 1007.2 |
| 20260509070041 | 80 | 0 | 0.0 | 2.0 | 0.00 | 0.00 | 0.00 | 23 | 1007.2 |
| 20260509065527 | 80 | 0 | 0.0 | 2.0 | 0.00 | 0.00 | 0.00 | 22 | 1007.1 |
| 20260509065025 | 80 | 248 | 0.0 | 2.0 | 0.00 | 0.00 | 0.00 | 23 | 1007.2 |
| 20260509064544 | 80 | 248 | 0.0 | 2.0 | 0.00 | 0.00 | 0.00 | 22 | 1007.2 |
| 20260509064025 | 80 | 0 | 1.0 | 2.0 | 0.00 | 0.00 | 0.00 | 23 | 1007.2 |
| 20260509063528 | 81 | 0 | 0.0 | 0.0 | 0.00 | 0.00 | 0.00 | 23 | 1007.1 |
| 20260509063039 | 81 | 0 | 0.0 | 0.0 | 0.00 | 0.00 | 0.00 | 22 | 1007.1 |
| 20260509062524 | 81 | 0 | 0.0 | 1.0 | 0.00 | 0.00 | 0.00 | 22 | 1007.1 |
| 20260509062026 | 82 | 0 | 0.0 | 2.0 | 0.00 | 0.00 | 0.00 | 22 | 1007.1 |
| 20260509061551 | 82 | 0 | 0.0 | 2.0 | 0.00 | 0.00 | 0.00 | 22 | 1007.0 |
| 20260509061024 | 82 | 0 | 0.0 | 2.0 | 0.00 | 0.00 | 0.00 | 21 | 1007.0 |
| 20260509060524 | 82 | 252 | 0.0 | 4.0 | 0.00 | 0.00 | 0.00 | 21 | 1007.0 |
| 20260509060041 | 82 | 0 | 1.0 | 4.0 | 0.00 | 0.00 | 0.00 | 21 | 1007.0 |
| 20260509055524 | 82 | 214 | 1.0 | 5.0 | 0.00 | 0.00 | 0.00 | 21 | 1007.0 |
| 20260509055027 | 82 | 219 | 1.0 | 5.0 | 0.00 | 0.00 | 0.00 | 21 | 1006.9 |
| 20260509054543 | 83 | 216 | 1.0 | 5.0 | 0.00 | 0.00 | 0.00 | 21 | 1007.0 |
| 20260509054026 | 83 | 253 | 1.0 | 4.0 | 0.00 | 0.00 | 0.00 | 21 | 1007.0 |
| 20260509053526 | 83 | 241 | 2.0 | 4.0 | 0.00 | 0.00 | 0.00 | 22 | 1006.9 |
| 20260509053040 | 83 | 211 | 2.0 | 4.0 | 0.00 | 0.00 | 0.00 | 22 | 1007.0 |
| 20260509052524 | 83 | 215 | 1.0 | 4.0 | 0.00 | 0.00 | 0.00 | 22 | 1007.0 |
| 20260509052024 | 83 | 211 | 1.0 | 5.0 | 0.00 | 0.00 | 0.00 | 21 | 1006.9 |
| 20260509051540 | 83 | 215 | 2.0 | 5.0 | 0.00 | 0.00 | 0.00 | 21 | 1007.0 |
| 20260509051024 | 84 | 232 | 1.0 | 4.0 | 0.00 | 0.00 | 0.00 | 21 | 1006.9 |
| 20260509050524 | 84 | 217 | 1.0 | 4.0 | 0.00 | 0.00 | 0.00 | 21 | 1007.0 |
| 20260509050046 | 84 | 217 | 1.0 | 5.0 | 0.00 | 0.00 | 0.00 | 21 | 1006.9 |
| 20260509045526 | 84 | 217 | 2.0 | 5.0 | 0.00 | 0.00 | 0.00 | 21 | 1006.9 |
| 20260509045026 | 85 | 236 | 2.0 | 5.0 | 0.00 | 0.00 | 0.00 | 20 | 1006.9 |
| 20260509044542 | 85 | 229 | 1.0 | 4.0 | 0.00 | 0.00 | 0.00 | 20 | 1006.9 |
| 20260509044026 | 85 | 223 | 1.0 | 4.0 | 0.00 | 0.00 | 0.00 | 20 | 1006.9 |
| 20260509043526 | 86 | 257 | 2.0 | 5.0 | 0.00 | 0.00 | 0.00 | 19 | 1006.8 |
| 20260509043046 | 86 | 216 | 1.0 | 6.0 | 0.00 | 0.00 | 0.00 | 19 | 1006.8 |
| 20260509042524 | 86 | 246 | 1.0 | 6.0 | 0.00 | 0.00 | 0.00 | 19 | 1006.8 |
| 20260509042024 | 87 | 230 | 1.0 | 6.0 | 0.00 | 0.00 | 0.00 | 18 | 1006.8 |
| 20260509041539 | 87 | 237 | 2.0 | 6.0 | 0.00 | 0.00 | 0.00 | 18 | 1006.6 |
| 20260509041023 | 87 | 227 | 2.0 | 6.0 | 0.00 | 0.00 | 0.00 | 18 | 1006.6 |
| 20260509040524 | 87 | 214 | 2.0 | 7.0 | 0.00 | 0.00 | 0.00 | 17 | 1006.5 |
| 20260509040040 | 88 | 254 | 2.0 | 7.0 | 0.00 | 0.00 | 0.00 | 17 | 1006.4 |
| 20260509035524 | 88 | 238 | 1.0 | 5.0 | 0.00 | 0.00 | 0.00 | 17 | 1006.4 |
| 20260509035023 | 88 | 274 | 1.0 | 5.0 | 0.00 | 0.00 | 0.00 | 17 | 1006.4 |
| 20260509034545 | 88 | 215 | 2.0 | 5.0 | 0.00 | 0.00 | 0.00 | 17 | 1006.2 |
| 20260509034024 | 88 | 222 | 2.0 | 5.0 | 0.00 | 0.00 | 0.00 | 18 | 1006.1 |
| 20260509033524 | 88 | 211 | 2.0 | 4.0 | 0.00 | 0.00 | 0.00 | 18 | 1006.1 |
| 20260509033041 | 89 | 192 | 1.0 | 3.0 | 0.00 | 0.00 | 0.00 | 18 | 1006.0 |
| 20260509032525 | 89 | 191 | 1.0 | 4.0 | 0.00 | 0.00 | 0.00 | 18 | 1005.8 |
| 20260509032024 | 89 | 200 | 1.0 | 4.0 | 0.00 | 0.00 | 0.00 | 17 | 1006.0 |
| 20260509031541 | 90 | 203 | 1.0 | 3.0 | 0.00 | 0.00 | 0.00 | 17 | 1006.0 |
| 20260509031024 | 90 | 0 | 1.0 | 3.0 | 0.00 | 0.00 | 0.00 | 16 | 1006.0 |
| 20260509030528 | 91 | 227 | 1.0 | 3.0 | 0.00 | 0.00 | 0.00 | 16 | 1006.0 |
| 20260509030041 | 91 | 0 | 0.0 | 3.0 | 0.00 | 0.00 | 0.00 | 16 | 1005.9 |
| 20260509025523 | 91 | 0 | 1.0 | 3.0 | 0.00 | 0.00 | 0.00 | 16 | 1005.9 |
| 20260509025025 | 92 | 232 | 1.0 | 3.0 | 0.00 | 0.00 | 0.00 | 15 | 1005.9 |
| 20260509024545 | 92 | 224 | 1.0 | 3.0 | 0.00 | 0.00 | 0.00 | 15 | 1005.8 |
| 20260509024027 | 93 | 244 | 1.0 | 3.0 | 0.00 | 0.00 | 0.00 | 15 | 1005.8 |
| 20260509023525 | 93 | 251 | 1.0 | 4.0 | 0.00 | 0.00 | 0.00 | 14 | 1005.7 |
| 20260509023046 | 93 | 253 | 1.0 | 4.0 | 0.00 | 0.00 | 0.00 | 14 | 1005.7 |
| 20260509022524 | 94 | 247 | 1.0 | 6.0 | 0.00 | 0.00 | 0.00 | 14 | 1005.6 |
| 20260509022024 | 94 | 265 | 1.0 | 6.0 | 0.00 | 0.00 | 0.00 | 14 | 1005.6 |
| 20260509021542 | 95 | 0 | 1.0 | 7.0 | 0.00 | 0.00 | 0.00 | 13 | 1005.5 |
| 20260509021024 | 95 | 284 | 1.0 | 7.0 | 0.00 | 0.00 | 0.00 | 13 | 1005.5 |
| 20260509020526 | 95 | 248 | 1.0 | 7.0 | 0.00 | 0.00 | 0.00 | 13 | 1005.6 |
| 20260509020039 | 96 | 243 | 2.0 | 7.0 | 0.00 | 0.00 | 0.00 | 13 | 1005.6 |
| 20260509015526 | 96 | 258 | 2.0 | 9.0 | 0.00 | 0.00 | 0.00 | 13 | 1005.5 |
| 20260509015025 | 96 | 280 | 3.0 | 9.0 | 0.00 | 0.00 | 0.00 | 12 | 1005.5 |
| 20260509014539 | 97 | 305 | 2.0 | 9.0 | 0.00 | 0.00 | 0.00 | 13 | 1005.5 |
| 20260509014023 | 97 | 277 | 2.0 | 9.0 | 0.00 | 0.00 | 0.00 | 12 | 1005.4 |
| 20260509013528 | 97 | 284 | 2.0 | 9.0 | 0.00 | 0.00 | 0.00 | 12 | 1005.5 |
| 20260509013046 | 97 | 292 | 2.0 | 9.0 | 0.00 | 0.00 | 0.00 | 12 | 1005.4 |
| 20260509012524 | 97 | 311 | 3.0 | 11.0 | 0.00 | 0.00 | 0.00 | 12 | 1005.4 |
| 20260509012024 | 97 | 304 | 5.0 | 11.0 | 0.00 | 0.00 | 0.00 | 12 | 1005.4 |
| 20260509011543 | 97 | 296 | 3.0 | 11.0 | 0.00 | 0.00 | 0.00 | 12 | 1005.5 |
| 20260509011027 | 97 | 301 | 4.0 | 11.0 | 0.00 | 0.00 | 0.00 | 12 | 1005.5 |
| 20260509010524 | 97 | 308 | 5.0 | 13.0 | 0.00 | 0.00 | 0.00 | 12 | 1005.5 |
| 20260509010042 | 97 | 307 | 4.0 | 13.0 | 0.00 | 0.00 | 0.00 | 12 | 1005.5 |
| 20260509005524 | 97 | 290 | 5.0 | 13.0 | 0.00 | 0.00 | 0.00 | 12 | 1005.6 |
| 20260509005028 | 97 | 352 | 5.0 | 13.0 | 0.00 | 0.00 | 0.00 | 12 | 1005.5 |
| 20260509004600 | 98 | 325 | 6.0 | 13.0 | 0.00 | 0.00 | 0.00 | 11 | 1005.6 |
| 20260509004030 | 98 | 308 | 4.0 | 12.0 | 0.00 | 0.00 | 0.00 | 11 | 1005.6 |
| 20260509003524 | 98 | 317 | 4.0 | 11.0 | 0.00 | 0.00 | 0.00 | 11 | 1005.5 |
| 20260509003044 | 97 | 334 | 6.0 | 14.0 | 0.00 | 0.00 | 0.00 | 11 | 1005.6 |
| 20260509002524 | 97 | 335 | 5.0 | 14.0 | 0.00 | 0.00 | 0.00 | 10 | 1005.6 |
| 20260509002026 | 97 | 329 | 6.0 | 14.0 | 0.00 | 0.00 | 0.00 | 10 | 1005.8 |
| 20260509001538 | 98 | 327 | 7.0 | 15.0 | 0.00 | 0.00 | 0.00 | 10 | 1005.8 |
| 20260509001025 | 98 | 290 | 7.0 | 15.0 | 0.00 | 0.00 | 0.00 | 10 | 1005.8 |
| 20260509000524 | 98 | 344 | 5.0 | 14.0 | 0.00 | 0.00 | 0.00 | 11 | 1005.8 |
| 20260509000045 | 98 | 340 | 6.0 | 12.0 | 0.00 | 0.00 | 0.00 | 11 | 1005.8 |
| 20260508235526 | 98 | 296 | 3.0 | 14.0 | 0.00 | 0.00 | 0.00 | 12 | 1005.9 |
| 20260508235024 | 98 | 335 | 7.0 | 14.0 | 0.00 | 0.00 | 0.00 | 11 | 1005.8 |
| 20260508234541 | 98 | 333 | 4.0 | 13.0 | 0.00 | 0.00 | 0.00 | 11 | 1005.7 |
| 20260508234024 | 98 | 289 | 7.0 | 15.0 | 0.00 | 0.00 | 0.00 | 12 | 1005.7 |
| 20260508233524 | 98 | 288 | 5.0 | 15.0 | 0.00 | 0.00 | 0.00 | 12 | 1005.9 |
| 20260508233039 | 98 | 300 | 3.0 | 13.0 | 0.00 | 0.00 | 0.00 | 12 | 1005.9 |
| 20260508232526 | 98 | 334 | 4.0 | 13.0 | 0.00 | 0.00 | 0.00 | 11 | 1006.1 |
| 20260508232026 | 98 | 360 | 3.0 | 10.0 | 0.00 | 0.00 | 0.00 | 12 | 1006.0 |
| 20260508231540 | 98 | 251 | 3.0 | 10.0 | 0.00 | 0.00 | 0.00 | 12 | 1006.1 |
| 20260508231024 | 98 | 279 | 5.0 | 14.0 | 0.00 | 0.00 | 0.00 | 12 | 1006.2 |
| 20260508230525 | 98 | 311 | 6.0 | 14.0 | 0.00 | 0.00 | 0.00 | 12 | 1006.1 |
| 20260508230050 | 98 | 318 | 7.0 | 14.0 | 0.00 | 0.00 | 0.00 | 12 | 1006.1 |
| 20260508225526 | 98 | 294 | 5.0 | 13.0 | 0.00 | 0.00 | 0.00 | 12 | 1006.2 |
| 20260508225028 | 98 | 307 | 4.0 | 10.0 | 0.00 | 0.00 | 0.00 | 13 | 1006.2 |
| 20260508224545 | 98 | 262 | 3.0 | 13.0 | 0.00 | 0.00 | 0.00 | 13 | 1006.1 |
| 20260508224024 | 98 | 253 | 5.0 | 13.0 | 0.00 | 0.00 | 0.00 | 13 | 1006.2 |
| 20260508223526 | 98 | 276 | 4.0 | 11.0 | 0.00 | 0.00 | 0.00 | 13 | 1006.3 |
| 20260508223135 | 97 | 285 | 3.0 | 13.0 | 0.00 | 0.00 | 0.00 | 14 | 1006.3 |
| 20260508222524 | 97 | 320 | 4.0 | 13.0 | 0.00 | 0.00 | 0.00 | 14 | 1006.4 |
| 20260508222026 | 97 | 306 | 4.0 | 13.0 | 0.00 | 0.00 | 0.00 | 13 | 1006.5 |
| 20260508221541 | 97 | 296 | 4.0 | 12.0 | 0.00 | 0.00 | 0.00 | 14 | 1006.7 |
| 20260508221024 | 97 | 304 | 6.0 | 12.0 | 0.00 | 0.00 | 0.00 | 14 | 1006.7 |
| 20260508220524 | 97 | 239 | 4.0 | 12.0 | 0.00 | 0.00 | 0.00 | 14 | 1006.8 |
| 20260508220041 | 97 | 331 | 5.0 | 12.0 | 0.00 | 0.00 | 0.00 | 14 | 1007.0 |
| 20260508215526 | 97 | 309 | 5.0 | 11.0 | 0.00 | 0.00 | 0.00 | 15 | 1007.1 |
| 20260508215028 | 97 | 300 | 4.0 | 11.0 | 0.00 | 0.00 | 0.00 | 14 | 1007.3 |
| 20260508214549 | 97 | 321 | 4.0 | 11.0 | 0.00 | 0.00 | 0.00 | 14 | 1007.3 |
| 20260508214030 | 96 | 255 | 2.0 | 11.0 | 0.00 | 0.00 | 0.00 | 14 | 1007.6 |
| 20260508213526 | 96 | 321 | 3.0 | 11.0 | 0.00 | 0.00 | 0.00 | 14 | 1007.6 |
| 20260508213045 | 96 | 331 | 5.0 | 11.0 | 0.00 | 0.00 | 0.00 | 14 | 1007.6 |
| 20260508212528 | 96 | 298 | 4.0 | 10.0 | 0.00 | 0.00 | 0.00 | 15 | 1007.7 |
| 20260508212028 | 96 | 316 | 2.0 | 13.0 | 0.00 | 0.00 | 0.00 | 15 | 1007.8 |
| 20260508211543 | 96 | 285 | 4.0 | 13.0 | 0.00 | 0.00 | 0.00 | 14 | 1007.9 |
| 20260508211027 | 96 | 319 | 1.0 | 9.0 | 0.00 | 0.00 | 0.00 | 15 | 1008.0 |
| 20260508210526 | 96 | 308 | 3.0 | 9.0 | 0.00 | 0.00 | 0.00 | 15 | 1008.1 |
| 20260508210045 | 95 | 313 | 3.0 | 11.0 | 0.00 | 0.00 | 0.00 | 15 | 1008.2 |
| 20260508205527 | 94 | 221 | 4.0 | 12.0 | 0.00 | 0.00 | 0.00 | 15 | 1008.2 |
| 20260508205029 | 95 | 333 | 3.0 | 12.0 | 0.00 | 0.00 | 0.00 | 15 | 1008.2 |
| 20260508204538 | 95 | 242 | 4.0 | 12.0 | 0.00 | 0.00 | 0.00 | 15 | 1008.3 |
| 20260508204025 | 95 | 322 | 1.0 | 8.0 | 0.00 | 0.00 | 0.00 | 15 | 1008.5 |
| 20260508203525 | 94 | 323 | 2.0 | 10.0 | 0.00 | 0.00 | 0.00 | 15 | 1008.6 |
| 20260508203037 | 93 | 290 | 3.0 | 10.0 | 0.00 | 0.00 | 0.00 | 16 | 1008.6 |
| 20260508202525 | 93 | 286 | 4.0 | 9.0 | 0.00 | 0.00 | 0.00 | 15 | 1008.7 |
| 20260508202024 | 94 | 259 | 4.0 | 9.0 | 0.00 | 0.00 | 0.00 | 15 | 1008.6 |
| 20260508201539 | 94 | 265 | 2.0 | 9.0 | 0.00 | 0.00 | 0.00 | 15 | 1008.8 |
| 20260508201024 | 93 | 168 | 2.0 | 10.0 | 0.00 | 0.00 | 0.00 | 16 | 1008.8 |
| 20260508200524 | 93 | 349 | 4.0 | 10.0 | 0.00 | 0.00 | 0.00 | 16 | 1009.0 |
| 20260508200047 | 93 | 304 | 1.0 | 9.0 | 0.00 | 0.00 | 0.00 | 16 | 1009.0 |
| 20260508195523 | 93 | 312 | 3.0 | 9.0 | 0.00 | 0.00 | 0.00 | 15 | 1009.1 |
| 20260508195027 | 93 | 213 | 3.0 | 9.0 | 0.00 | 0.00 | 0.00 | 16 | 1009.1 |
| 20260508194545 | 93 | 322 | 3.0 | 9.0 | 0.00 | 0.00 | 0.00 | 16 | 1009.2 |
| 20260508194023 | 92 | 292 | 1.0 | 11.0 | 0.00 | 0.00 | 0.00 | 17 | 1009.2 |
| 20260508193523 | 92 | 318 | 3.0 | 11.0 | 0.00 | 0.00 | 0.00 | 17 | 1009.3 |
| 20260508193044 | 93 | 310 | 4.0 | 11.0 | 0.00 | 0.00 | 0.00 | 17 | 1009.5 |
| 20260508192524 | 93 | 226 | 3.0 | 9.0 | 0.00 | 0.00 | 0.00 | 16 | 1009.5 |
| 20260508192025 | 92 | 265 | 2.0 | 9.0 | 0.00 | 0.00 | 0.00 | 17 | 1009.7 |
| 20260508191539 | 92 | 238 | 4.0 | 9.0 | 0.00 | 0.00 | 0.00 | 17 | 1009.6 |
| 20260508191024 | 92 | 263 | 4.0 | 9.0 | 0.00 | 0.00 | 0.00 | 17 | 1009.7 |
| 20260508190524 | 91 | 225 | 2.0 | 8.0 | 0.00 | 0.00 | 0.00 | 17 | 1009.7 |
| 20260508190054 | 91 | 245 | 2.0 | 9.0 | 0.00 | 0.00 | 0.00 | 17 | 1009.9 |
| 20260508185524 | 90 | 347 | 2.0 | 9.0 | 0.00 | 0.00 | 0.00 | 17 | 1009.9 |
| 20260508185024 | 91 | 325 | 4.0 | 9.0 | 0.00 | 0.00 | 0.00 | 16 | 1010.0 |
| 20260508184558 | 92 | 269 | 3.0 | 7.0 | 0.00 | 0.00 | 0.00 | 16 | 1010.0 |
| 20260508184024 | 91 | 0 | 1.0 | 7.0 | 0.00 | 0.00 | 0.00 | 17 | 1010.2 |
| 20260508183523 | 91 | 213 | 1.0 | 7.0 | 0.00 | 0.00 | 0.00 | 17 | 1010.3 |
| 20260508183039 | 90 | 133 | 1.0 | 8.0 | 0.00 | 0.00 | 0.00 | 17 | 1010.3 |
| 20260508182527 | 90 | 69 | 1.0 | 8.0 | 0.00 | 0.00 | 0.00 | 16 | 1010.3 |
| 20260508182025 | 90 | 259 | 2.0 | 8.0 | 0.00 | 0.00 | 0.00 | 18 | 1010.4 |
| 20260508181551 | 90 | 319 | 2.0 | 7.0 | 0.00 | 0.00 | 0.00 | 17 | 1010.3 |
| 20260508181024 | 90 | 0 | 1.0 | 7.0 | 0.00 | 0.00 | 0.00 | 18 | 1010.5 |
| 20260508180524 | 89 | 0 | 1.0 | 7.0 | 0.00 | 0.00 | 0.00 | 18 | 1010.6 |
| 20260508180039 | 89 | 0 | 2.0 | 7.0 | 0.00 | 0.00 | 0.00 | 19 | 1010.6 |
| 20260508175525 | 89 | 0 | 0.0 | 7.0 | 0.00 | 0.00 | 0.00 | 19 | 1010.6 |
| 20260508175027 | 88 | 0 | 0.0 | 7.0 | 0.00 | 0.00 | 0.00 | 20 | 1010.7 |
| 20260508174543 | 88 | 192 | 1.0 | 6.0 | 0.00 | 0.00 | 0.00 | 20 | 1010.7 |
| 20260508174027 | 87 | 0 | 1.0 | 7.0 | 0.00 | 0.00 | 0.00 | 20 | 1010.8 |
| 20260508173524 | 87 | 176 | 0.0 | 7.0 | 0.00 | 0.00 | 0.00 | 20 | 1010.8 |
| 20260508173047 | 87 | 194 | 2.0 | 5.0 | 0.00 | 0.00 | 0.00 | 20 | 1010.8 |
| 20260508172524 | 86 | 252 | 1.0 | 6.0 | 0.00 | 0.00 | 0.00 | 21 | 1010.8 |
| 20260508172025 | 86 | 319 | 2.0 | 7.0 | 0.00 | 0.00 | 0.00 | 21 | 1010.8 |
| 20260508171540 | 87 | 317 | 2.0 | 7.0 | 0.00 | 0.00 | 0.00 | 20 | 1010.9 |
| 20260508171023 | 87 | 215 | 1.0 | 6.0 | 0.00 | 0.00 | 0.00 | 20 | 1010.9 |
| 20260508170523 | 87 | 161 | 0.0 | 4.0 | 0.00 | 0.00 | 0.00 | 20 | 1010.9 |
| 20260508170041 | 86 | 0 | 0.0 | 5.0 | 0.00 | 0.00 | 0.00 | 20 | 1011.0 |
| 20260508165524 | 86 | 167 | 1.0 | 5.0 | 0.00 | 0.00 | 0.00 | 20 | 1011.0 |
| 20260508165023 | 86 | 200 | 1.0 | 4.0 | 0.00 | 0.00 | 0.00 | 20 | 1011.0 |
| 20260508164549 | 85 | 94 | 1.0 | 5.0 | 0.00 | 0.00 | 0.00 | 21 | 1011.1 |
| 20260508164026 | 85 | 0 | 1.0 | 5.0 | 0.00 | 0.00 | 0.00 | 21 | 1011.1 |
| 20260508163527 | 84 | 176 | 1.0 | 4.0 | 0.00 | 0.00 | 0.00 | 21 | 1011.1 |
| 20260508163038 | 83 | 0 | 0.0 | 4.0 | 0.00 | 0.00 | 0.00 | 22 | 1011.2 |
| 20260508162524 | 83 | 85 | 0.0 | 6.0 | 0.00 | 0.00 | 0.00 | 22 | 1011.1 |
| 20260508162027 | 82 | 153 | 2.0 | 6.0 | 0.00 | 0.00 | 0.00 | 23 | 1011.1 |
| 20260508161548 | 82 | 212 | 2.0 | 7.0 | 0.00 | 0.00 | 0.00 | 22 | 1011.1 |
| 20260508161024 | 82 | 0 | 1.0 | 8.0 | 0.00 | 0.00 | 0.00 | 25 | 1011.0 |
| 20260508160523 | 81 | 160 | 2.0 | 8.0 | 0.00 | 0.00 | 0.00 | 26 | 1011.0 |
| 20260508160039 | 81 | 199 | 2.0 | 8.0 | 0.00 | 0.00 | 0.00 | 25 | 1010.9 |
| 20260508155524 | 81 | 119 | 2.0 | 7.0 | 0.00 | 0.00 | 0.00 | 27 | 1010.9 |
| 20260508155024 | 80 | 193 | 1.0 | 7.0 | 0.00 | 0.00 | 0.00 | 27 | 1011.0 |
| 20260508154542 | 80 | 140 | 2.0 | 6.0 | 0.00 | 0.00 | 0.00 | 27 | 1011.0 |
| 20260508154025 | 79 | 91 | 2.0 | 7.0 | 0.00 | 0.00 | 0.00 | 28 | 1011.1 |
| 20260508153524 | 78 | 148 | 1.0 | 7.0 | 0.00 | 0.00 | 0.00 | 28 | 1011.2 |
| 20260508153039 | 78 | 100 | 3.0 | 7.0 | 0.00 | 0.00 | 0.00 | 28 | 1011.2 |
| 20260508152524 | 78 | 151 | 3.0 | 7.0 | 0.00 | 0.00 | 0.00 | 29 | 1011.2 |
| 20260508152024 | 77 | 96 | 2.0 | 7.0 | 0.00 | 0.00 | 0.00 | 29 | 1011.2 |
| 20260508151538 | 77 | 132 | 2.0 | 7.0 | 0.00 | 0.00 | 0.00 | 29 | 1011.2 |
| 20260508151025 | 76 | 107 | 1.0 | 6.0 | 0.00 | 0.00 | 0.00 | 29 | 1011.2 |
| 20260508150529 | 76 | 150 | 2.0 | 6.0 | 0.00 | 0.00 | 0.00 | 30 | 1011.2 |
| 20260508150050 | 75 | 145 | 2.0 | 7.0 | 0.00 | 0.00 | 0.00 | 31 | 1011.3 |
| 20260508145525 | 75 | 156 | 2.0 | 8.0 | 0.00 | 0.00 | 0.00 | 31 | 1011.3 |